Terminal Aerodrome Forecast
Issued by NWS Chicago, IL

Home | Current Version | Previous Version | Graphics & Text | Print | Product List | Glossary On
Versions: 1 2 3 4 5 6 7 8 9 10 11 12 13 14 15 16 17 18 19 20 21 22 23 24 25
578
FTUS43 KLOT 041500 AAA
TAFRFD
TAF AMD
KRFD 041500Z 0415/0512 28009KT P6SM SCT150
     FM041600 25010KT P6SM FEW250
     FM041900 22008KT P6SM SCT050 BKN100
     FM050600 30007KT P6SM BKN250=

USA.gov is the U.S. government's official web portal to all federal, state and local government web resources and services.